Location: Homewood
(41.1836°S, 175.9581°E)
Time: 07:18:45
(UTC+00:00)

AQUARIUS - Visible Passes

Search period start: 13 July 2024 00:00
Search period end: 23 July 2024 00:00
Orbit: 641 x 643 km, 98.0° (Epoch: 13 July)

Date Brightness Start Highest point End Pass type
(mag) Time Alt. Az. Time Alt. Az. Time Alt. Az.
13 Jul 4.5 06:23:11 12° SSE 06:27:08 44° E 06:31:24 10° N visible
13 Jul 6.7 08:00:48 12° SSW 08:03:19 19° WSW 08:06:26 10° WNW visible
13 Jul 5.5 17:20:16 10° NE 17:24:24 38° ESE 17:28:35 10° S visible
13 Jul 5.5 18:57:44 10° NW 19:01:03 20° W 19:04:26 10° SW visible
14 Jul 4.0 06:47:28 14° SSE 06:51:19 81° ENE 06:55:48 10° N visible
14 Jul 7.2 08:26:00 10° SW 08:27:10 11° WSW 08:28:20 10° WSW visible
14 Jul 4.4 17:44:00 10° NNE 17:48:27 68° ESE 17:52:57 10° S visible
15 Jul 5.9 05:36:13 10° ESE 05:38:32 14° E 05:40:50 10° ENE visible
15 Jul 4.8 07:11:45 15° S 07:15:25 56° WSW 07:19:48 10° NNW visible
15 Jul 7.1 16:34:31 10° E 16:36:37 13° ESE 16:38:42 10° SE visible
15 Jul 4.1 18:08:08 10° N 18:12:35 66° W 18:17:05 10° SSW visible
16 Jul 5.2 05:59:11 10° SE 06:02:54 24° E 06:06:33 10° NNE visible
16 Jul 5.8 07:36:02 13° SSW 07:39:26 31° WSW 07:43:23 10° NW visible
16 Jul 6.4 16:57:02 10° ENE 17:00:29 22° ESE 17:03:57 10° SSE visible
16 Jul 4.8 18:32:40 10° NNW 18:36:47 36° W 18:40:58 10° SSW visible
17 Jul 4.5 06:22:50 10° SSE 06:27:10 44° E 06:31:26 10° N visible
17 Jul 6.7 08:00:17 10° SSW 08:03:22 19° WSW 08:06:28 10° WNW visible
17 Jul 5.5 17:20:18 10° NE 17:24:26 38° ESE 17:28:37 10° S visible
17 Jul 5.5 18:57:46 10° NW 19:01:05 20° W 19:04:26 10° SW visible
18 Jul 4.0 06:46:56 11° SSE 06:51:21 81° ENE 06:55:49 10° N visible
18 Jul 7.2 08:26:01 10° SW 08:27:11 11° WSW 08:28:22 10° WSW visible
18 Jul 4.4 17:44:01 10° NNE 17:48:28 68° ESE 17:52:58 10° S visible
19 Jul 4.8 07:11:10 11° S 07:15:26 56° WSW 07:19:49 10° NNW visible
19 Jul 7.1 16:34:31 10° E 16:36:37 13° ESE 16:38:42 10° SE visible
19 Jul 4.1 18:08:08 10° N 18:12:35 66° W 18:17:06 10° SSW visible
20 Jul 5.3 05:59:11 10° SE 06:02:54 24° E 06:06:32 10° NNE visible
20 Jul 5.9 07:35:26 10° S 07:39:26 31° WSW 07:43:23 10° NW visible
20 Jul 6.5 16:57:01 10° ENE 17:00:28 22° ESE 17:03:56 10° SSE visible
20 Jul 4.8 18:32:40 10° NNW 18:36:47 36° W 18:40:58 10° SSW visible
21 Jul 4.5 06:22:49 10° SSE 06:27:09 43° E 06:31:25 10° N visible
21 Jul 6.7 08:00:13 10° SSW 08:03:20 19° WSW 08:06:27 10° WNW visible
21 Jul 5.5 17:20:17 10° NE 17:24:24 38° ESE 17:28:35 10° S visible
21 Jul 5.5 18:57:44 10° NW 19:01:03 20° W 19:04:26 10° SW visible
22 Jul 4.0 06:46:46 10° SSE 06:51:19 81° ENE 06:55:47 10° N visible
22 Jul 7.2 08:25:58 10° SW 08:27:10 11° WSW 08:28:20 10° WSW visible
22 Jul 4.4 17:43:59 10° NNE 17:48:26 68° ESE 17:52:56 10° S visible
